Location: Chaumontel
(49.1247°N, 2.4324°E)
Time: 09:22:09
(UTC+00:00)

IRIDIUM 103 - Pass Details

Date: 17 May 2025
Orbit: 775 x 780 km, 86.4° (Epoch: 20 June)

Event Time Altitude Azimuth Distance (km) Brightness Sun altitude
Exits shadow 23:47:35 12° 112° (ESE) 2,191 6.4 -21.3°
Maximum altitude 23:50:25 18° 76° (ENE) 1,846 6.4 -21.3°
Drops below altitude 10° 23:53:51 10° 35° (NE) 2,343 7.6 -21.3°
Sets 23:56:53 0° 17° (NNE) 3,276 8.9 -21.3°
